Seattle, WA
on Wednesday, December 5, 2012

Wednesday
Previous Day Next Day
Daily Summary
 ActualAverageRecord
Temperature
Mean Temperature °F 41°F  
Max Temperature 48°F 47°F 55°F (1954)
Min Temperature 40°F 36°F 23°F (1956)
Degree Days
Heating Degree Days 21 24  
Month to date heating degree days 87 116  
Since 1 July heating degree days 1114 1299  
Cooling Degree Days 0 0  
Month to date cooling degree days 0 0  
Year to date cooling degree days 177 189  
Moisture
Dew Point 37°F   
Average Humidity 74    
Maximum Humidity 82    
Minimum Humidity 65    
Precipitation
Precipitation 0.06 in 0.19 in 1.67 in (1970)
Month to date precipitation 2.06 0.98  
Year to date precipitation 43.47 33.12  
Snow
Snow 0.00 in in 2.60 in (1956)
Month to date snowfall 0.0  
Since 1 July snowfall 0.0  
Snow Depth 0.00 in   
Wind
Wind Speed 11 mph   
Max Wind Speed 22 mph   
Max Gust Speed 29 mph   
Visibility 10 miles   
Events Rain   

Key: T is trace of precipitation, MM is missing value
Source: NWS Daily Summary
Time(PST)TemperatureDew PointHumidity Pressure Visibility Wind DirectionWind SpeedGust SpeedPrecipitationEvents Conditions
12:30 AM 44.6°F 39.2°F 81% 29.87 in 10.0 miles SSW 13.8 mph - 0.00 in   Mostly Cloudy
12:41 AM 44.6°F 37.4°F 76% 29.87 in 10.0 miles South 15.0 mph 21.9 mph 0.00 in   Mostly Cloudy
12:53 AM 44.1°F 37.9°F 79% 29.91 in 10.0 miles SSW 16.1 mph 23.0 mph 0.00 in   Scattered Clouds
1:53 AM 45.0°F 37.0°F 74% 29.96 in 10.0 miles SSW 15.0 mph 24.2 mph N/A   Mostly Cloudy
2:53 AM 44.1°F 35.1°F 71% 30.00 in 10.0 miles SSW 16.1 mph 25.3 mph N/A   Scattered Clouds
3:53 AM 43.0°F 36.0°F 76% 30.05 in 10.0 miles SSW 15.0 mph - N/A   Mostly Cloudy
4:53 AM 42.1°F 36.0°F 79% 30.07 in 10.0 miles SSW 13.8 mph - 0.00 in   Overcast
6:53 AM 41.0°F 36.0°F 82% 30.12 in 10.0 miles SSW 10.4 mph - N/A   Mostly Cloudy
7:53 AM 41.0°F 36.0°F 82% 30.14 in 10.0 miles South 12.7 mph - N/A   Mostly Cloudy
8:53 AM 42.1°F 35.1°F 76% 30.17 in 10.0 miles South 12.7 mph - N/A   Scattered Clouds
9:53 AM 44.1°F 36.0°F 73% 30.19 in 10.0 miles South 12.7 mph - N/A   Scattered Clouds
10:53 AM 45.0°F 37.0°F 74% 30.22 in 10.0 miles SSW 16.1 mph - N/A   Scattered Clouds
11:53 AM 46.0°F 37.0°F 71% 30.21 in 10.0 miles SSW 12.7 mph - N/A   Mostly Cloudy
12:53 PM 46.9°F 36.0°F 66% 30.21 in 10.0 miles SW 11.5 mph - N/A   Mostly Cloudy
1:53 PM 46.9°F 37.0°F 68% 30.20 in 10.0 miles South 8.1 mph - N/A   Mostly Cloudy
2:53 PM 46.9°F 36.0°F 66% 30.20 in 10.0 miles SSW 9.2 mph - N/A   Mostly Cloudy
3:53 PM 46.0°F 37.0°F 71% 30.22 in 10.0 miles SSW 8.1 mph - 0.01 in   Mostly Cloudy
4:27 PM 42.8°F 37.4°F 81% 30.20 in 6.0 miles SW 8.1 mph - 0.04 in Rain Light Rain
4:29 PM 42.8°F 37.4°F 81% 30.20 in 7.0 miles WSW 8.1 mph - 0.05 in Rain Light Rain
4:53 PM 43.0°F 37.9°F 82% 30.22 in 10.0 miles South 9.2 mph - 0.05 in   Overcast
5:53 PM 42.1°F 37.0°F 82% 30.22 in 10.0 miles South 10.4 mph - N/A   Overcast
6:53 PM 43.0°F 36.0°F 76% 30.22 in 10.0 miles South 8.1 mph - N/A   Overcast
7:53 PM 44.1°F 36.0°F 73% 30.23 in 10.0 miles SSW 5.8 mph - 0.00 in Rain Light Rain
8:53 PM 43.0°F 36.0°F 76% 30.22 in 10.0 miles South 10.4 mph - 0.00 in   Overcast
9:53 PM 43.0°F 36.0°F 76% 30.22 in 10.0 miles SSW 8.1 mph - N/A   Overcast
10:53 PM 44.1°F 36.0°F 73% 30.21 in 10.0 miles South 8.1 mph - N/A   Overcast
11:19 PM 44.6°F 37.4°F 76% 30.19 in 10.0 miles SSW 9.2 mph - 0.00 in Rain Light Rain
11:53 PM 43.0°F 37.0°F 80% 30.21 in 10.0 miles SSW 5.8 mph - 0.00 in   Overcast
Moon Phase
Dec. 05 Dec. 06 Dec. 13 Dec. 20 Dec. 28
Sunrise:07:41 AM (PST) Moon Rise:11:36 PM (PST)12/5
Sunset:04:18 PM (PST) Moon Set:11:47 AM (PST)12/5

Copyright © 2014 The Weather Underground, Inc.